STARLINK-3137 (49449 NORAD) Tracking and Keplerian Element Data

This shows tracking and keplerian element data for the satellite.

Feedback or suggestion? Click here.




ElementValue
Catalog49449
NameSTARLINK-3137
Epoch Orbit370
Epoch Day15.91668981
Epoch Year2022
RAAN180.2383
Inclination53.2173
Eccentricity0.0001673
Argument of Perigee37.8238
Mean Anonmoly90.7213
Mean Motion15.54459488
Decay Rate-0.00649666
L11 49449U 21104AT 22015.91668981 -.00649666 00000+0 -10523-1 0 9996
L22 49449 53.2173 180.2383 0001673 37.8238 90.7213 15.54459488 3701

Live tracking and technical data element details for STARLINK-3137 (NORAD 49449). STARLINK-3137 can be tracked NOW for your location showing map with azimuth and elevation plus other details from your city location.

Track the satellite on the map from your city or location and see movement details for azimuth, elevation, latitude, longitude, range, height, and movement on the map or in text.







IsCatalogInMostPopularTable: catalog: 49449, numindb: 7
Update: records affected: 1



GetName: 49449 STARLINK-3137

Hit Count: updated at: Thu, 20 Jan 2022 18:13:07 GMT